Weather History for Pellston, MI

Change the Weather History Date:

Wednesday, February 12, 2014

  Actual Average Record
Temperature  
Mean Temperature 2 °F -  
Max Temperature 19 °F 26 °F 44 °F (1974)
Min Temperature -14 °F 2 °F -28 °F (1958)
Degree Days  
Heating Degree Days 62    
Moisture  
Dew Point 8 °F    
Average Humidity 76    
Maximum Humidity 85    
Minimum Humidity 68    
Precipitation  
Precipitation 0.00 in - - ()
Sea Level Pressure  
Sea Level Pressure 30.16 in    
Wind  
Wind Speed 7 mph (SSW)    
Max Wind Speed 15 mph    
Max Gust Speed 22 mph    
Visibility 6 miles    
Events Snow    
Averages and records for this station are not official NWS values.
T = Trace of Precipitation, MM = Missing Value Source: NWS Daily Summary

Daily Weather History Graph

Daily Weather History Graph

Search for Another Location

Airport:

Trip Planner

Search our weather history database for the weather conditions in past years. The results will help you decide how hot, cold, wet, or windy it might be!

Date:

Astronomy

Feb. 12, 2014 Rise Set
Actual Time 7:45 AM EST 6:01 PM EST
Civil Twilight 7:14 AM EST 6:32 PM EST
Nautical Twilight 6:40 AM EST 7:07 PM EST
Astronomical Twilight 6:05 AM EST 7:41 PM EST
Moon 4:12 PM EST (2/12) 6:04 AM EST (2/12)
Length of Visible Light 11h 17m
Length of Day
10h 16m
Waxing Gibbous, 95% of the Moon is Illuminated
Feb 12
Waxing Gibbous
Feb 14
Full
Feb 22
Last Quarter
Mar 1
New
Mar 8
First Quarter

Hourly Weather History & Observations

Time (EST) Temp. Windchill Dew Point Humidity Pressure Visibility Wind Dir Wind Speed Gust Speed Precip Events Conditions
12:52 AM -14.8 °F - -18.4 °F 84% 30.30 in 10.0 mi Calm Calm - N/A   Mostly Cloudy
12:54 AM -14.1 °F - -18.9 °F 79% 30.37 in 10.0 mi Calm Calm - N/A   Mostly Cloudy
1:54 AM -0.9 °F -12.7 °F -7.1 °F 75% 30.34 in 9.0 mi South 5.8 mph - N/A   Overcast
2:54 AM 7.0 °F -1.7 °F 1.9 °F 80% 30.33 in 10.0 mi SSE 4.6 mph - N/A   Overcast
3:54 AM 12.0 °F -2.0 °F 5.0 °F 73% 30.30 in 10.0 mi South 11.5 mph - N/A   Overcast
4:54 AM 12.0 °F -2.0 °F 5.0 °F 73% 30.29 in 10.0 mi South 11.5 mph - N/A   Overcast
5:54 AM 12.9 °F -0.2 °F 5.0 °F 71% 30.28 in 10.0 mi South 10.4 mph - N/A   Overcast
6:54 AM 12.9 °F 1.6 °F 6.1 °F 74% 30.26 in 10.0 mi South 8.1 mph - N/A   Overcast
7:54 AM 12.9 °F -0.9 °F 6.1 °F 74% 30.25 in 10.0 mi South 11.5 mph 18.4 mph N/A   Overcast
8:54 AM 14.0 °F 0.5 °F 6.1 °F 71% 30.24 in 10.0 mi South 11.5 mph 16.1 mph N/A   Overcast
9:54 AM 14.0 °F 1.2 °F 7.0 °F 74% 30.22 in 1.8 mi SSW 10.4 mph - 0.00 in Snow Light Snow
10:02 AM 14.0 °F -0.2 °F 8.1 °F 77% 30.15 in 1.0 mi SSW 12.7 mph - 0.00 in Snow Light Snow
10:22 AM 14.0 °F 1.2 °F 9.0 °F 80% 30.15 in 0.8 mi South 10.4 mph 19.6 mph 0.00 in Snow Light Snow
10:44 AM 15.1 °F 1.8 °F 9.0 °F 77% 30.14 in 1.2 mi SSW 11.5 mph - 0.00 in Snow Light Snow
10:54 AM 15.1 °F 3.3 °F 9.0 °F 77% 30.20 in 1.0 mi SSW 9.2 mph 17.3 mph 0.00 in Snow Light Snow
11:35 AM 16.0 °F 2.9 °F 10.0 °F 77% 30.13 in 2.0 mi SSW 11.5 mph 18.4 mph 0.00 in Snow Light Snow
11:46 AM 17.1 °F 3.6 °F 10.0 °F 74% 30.13 in 1.5 mi SW 12.7 mph 19.6 mph 0.00 in Snow Light Snow
11:54 AM 17.1 °F 4.3 °F 10.9 °F 77% 30.18 in 1.8 mi SSW 11.5 mph 19.6 mph 0.00 in Snow Light Snow
11:59 AM 17.1 °F 3.0 °F 10.9 °F 77% 30.12 in 3.0 mi South 13.8 mph 21.9 mph 0.00 in Snow Light Snow
12:24 PM 18.0 °F 6.1 °F 10.9 °F 74% 30.11 in 2.5 mi SSW 10.4 mph - 0.00 in Snow Light Snow
12:33 PM 18.0 °F 3.6 °F 10.9 °F 74% 30.10 in 5.0 mi South 15.0 mph 20.7 mph 0.00 in Snow Light Snow
12:54 PM 19.0 °F 6.8 °F 10.9 °F 71% 30.16 in 4.0 mi SSW 11.5 mph - 0.00 in Snow Light Snow
1:54 PM 19.0 °F 5.6 °F 10.9 °F 71% 30.11 in 9.0 mi SSW 13.8 mph 21.9 mph 0.00 in   Overcast
2:54 PM 19.9 °F 8.6 °F 10.9 °F 68% 30.08 in 7.0 mi SW 10.4 mph 20.7 mph 0.00 in   Overcast
3:54 PM 19.9 °F 10.1 °F 10.9 °F 68% 30.07 in 10.0 mi South 8.1 mph - N/A   Overcast
4:54 PM 19.9 °F 12.1 °F 12.0 °F 71% 30.07 in 5.0 mi SSW 5.8 mph 19.6 mph 0.00 in   Haze
5:54 PM 19.9 °F 12.1 °F 12.0 °F 71% 30.06 in 5.0 mi SSW 5.8 mph - 0.00 in   Haze
6:01 PM 19.9 °F 10.1 °F 12.9 °F 74% 30.02 in 5.0 mi SSW 8.1 mph - N/A   Haze
6:54 PM 19.0 °F 11.1 °F 12.9 °F 77% 30.08 in 3.0 mi SSW 5.8 mph - 0.00 in Snow Light Snow
7:54 PM 19.0 °F 11.1 °F 12.9 °F 77% 30.08 in 6.0 mi SSW 5.8 mph - 0.00 in   Haze
8:54 PM 19.0 °F 13.9 °F 14.0 °F 81% 30.08 in 3.0 mi SW 3.5 mph - 0.00 in Snow Light Snow
9:36 PM 19.0 °F 13.9 °F 14.0 °F 81% 30.03 in 3.0 mi SSW 3.5 mph - 0.00 in Snow Light Snow
9:54 PM 19.0 °F 12.3 °F 14.0 °F 81% 30.07 in 4.0 mi SSW 4.6 mph - 0.00 in   Haze
10:54 PM 19.0 °F - 15.1 °F 85% 30.07 in 10.0 mi Calm Calm - N/A   Overcast
11:54 PM 19.0 °F 13.9 °F 15.1 °F 85% 30.06 in 9.0 mi South 3.5 mph - N/A   Overcast